Sedalia, MO

11:03 PM CDT on September 25, 2016 (GMT -0500)
Sedalia Memorial

Weather History for KDMO - April, 2013

Change the Weather History Date:

Sunday, April 21, 2013

  Actual Average Record
Temperature  
Mean Temperature 59 °F 58 °F  
Max Temperature 70 °F 69 °F 91 °F (1987)
Min Temperature 47 °F 48 °F 26 °F (1982)
Degree Days  
Heating Degree Days 6 8  
Month to date heating degree days 270 223  
Since 1 July heating degree days 4511 4425  
Cooling Degree Days 0 1  
Month to date cooling degree days 12 20  
Year to date cooling degree days 13 23  
Growing Degree Days 8 (Base 50)    
Moisture  
Dew Point 38 °F    
Average Humidity 49    
Maximum Humidity 66    
Minimum Humidity 31    
Precipitation  
Precipitation 0.00 in 0.15 in 4.34 in (1973)
Month to date precipitation 4.70 2.62  
Year to date precipitation 12.37 8.83  
Sea Level Pressure  
Sea Level Pressure 30.23 in    
Wind  
Wind Speed 12 mph (SSE)    
Max Wind Speed 17 mph    
Max Gust Speed 25 mph    
Visibility 10 miles    
Events      
T = Trace of Precipitation, MM = Missing Value Source: NWS Daily Summary

Daily Weather History Graph

Daily Weather History Graph

Search for Another Location

Airport or City:

Trip Planner

Search our weather history database for the weather conditions in past years. The results will help you decide how hot, cold, wet, or windy it might be!

Date:

Astronomy

Apr. 21, 2013 Rise Set
Actual Time 6:27 AM CDT 7:55 PM CDT
Civil Twilight 5:59 AM CDT 8:23 PM CDT
Nautical Twilight 5:26 AM CDT 8:57 PM CDT
Astronomical Twilight 4:51 AM CDT 9:32 PM CDT
Moon 3:44 PM CDT (4/21) 3:47 AM CDT (4/21)
Length of Visible Light 14h 23m
Length of Day
13h 27m
Waxing Gibbous, 80% of the Moon is Illuminated
Apr 21
Waxing Gibbous
Apr 25
Full
May 2
Last Quarter
May 9
New
May 17
First Quarter

Hourly Weather History & Observations

Time (CDT) Temp. Dew Point Humidity Pressure Visibility Wind Dir Wind Speed Gust Speed Precip Events Conditions
12:53 AM 48.0 °F 32.0 °F 54% 30.25 in 10.0 mi ESE 10.4 mph - N/A   Mostly Cloudy
1:53 AM 48.0 °F 32.0 °F 54% 30.25 in 10.0 mi ESE 10.4 mph - N/A   Scattered Clouds
2:53 AM 48.0 °F 33.1 °F 56% 30.24 in 10.0 mi SE 11.5 mph - N/A   Clear
3:53 AM 46.9 °F 34.0 °F 61% 30.24 in 10.0 mi SE 10.4 mph - N/A   Clear
4:53 AM 46.9 °F 35.1 °F 63% 30.25 in 10.0 mi SE 12.7 mph - N/A   Clear
5:53 AM 46.9 °F 35.1 °F 63% 30.26 in 10.0 mi SE 11.5 mph - N/A   Overcast
6:53 AM 46.9 °F 36.0 °F 66% 30.28 in 10.0 mi SE 11.5 mph - N/A   Mostly Cloudy
7:53 AM 48.9 °F 37.9 °F 66% 30.30 in 10.0 mi SE 13.8 mph - N/A   Overcast
8:53 AM 53.1 °F 37.9 °F 57% 30.30 in 10.0 mi SSE 13.8 mph 21.9 mph N/A   Mostly Cloudy
9:53 AM 55.9 °F 39.9 °F 55% 30.30 in 10.0 mi SSE 15.0 mph - N/A   Overcast
10:53 AM 61.0 °F 42.1 °F 50% 30.29 in 10.0 mi SSE 11.5 mph - N/A   Overcast
11:53 AM 64.0 °F 42.1 °F 45% 30.28 in 10.0 mi South 11.5 mph - N/A   Mostly Cloudy
12:53 PM 66.0 °F 42.1 °F 42% 30.25 in 10.0 mi SSE 16.1 mph 21.9 mph N/A   Mostly Cloudy
1:53 PM 66.9 °F 39.9 °F 37% 30.22 in 10.0 mi South 12.7 mph 25.3 mph N/A   Clear
2:53 PM 69.1 °F 42.1 °F 38% 30.19 in 10.0 mi South 11.5 mph - N/A   Partly Cloudy
3:53 PM 66.9 °F 39.0 °F 36% 30.17 in 10.0 mi South 17.3 mph 25.3 mph N/A   Scattered Clouds
4:53 PM 69.1 °F 37.9 °F 32% 30.15 in 10.0 mi South 16.1 mph - N/A   Scattered Clouds
5:53 PM 66.0 °F 39.9 °F 38% 30.15 in 10.0 mi South 9.2 mph - N/A   Scattered Clouds
6:53 PM 64.9 °F 41.0 °F 42% 30.14 in 10.0 mi South 8.1 mph - N/A   Scattered Clouds
7:53 PM 62.1 °F 39.9 °F 44% 30.16 in 10.0 mi South 9.2 mph - N/A   Overcast
8:53 PM 60.1 °F 39.0 °F 46% 30.17 in 10.0 mi SSE 6.9 mph - N/A   Overcast
9:53 PM 55.0 °F 39.0 °F 55% 30.19 in 10.0 mi SSE 8.1 mph - N/A   Overcast
10:53 PM 54.0 °F 37.9 °F 55% 30.19 in 10.0 mi SSE 6.9 mph - N/A   Scattered Clouds